Lincoln, CA

12:19 PM PDT on April 27, 2017 (GMT -0700)
Lincoln Regional-Harder

Weather History for KLHM - February, 2013

Change the Weather History Date:

Tuesday, February 19, 2013

  Actual Average (KAUN) Record (KAUN)
Temperature  
Mean Temperature 39 °F -  
Max Temperature 46 °F 58 °F 76 °F (1977)
Min Temperature 32 °F 40 °F 28 °F (1956)
Degree Days  
Heating Degree Days 26    
Moisture  
Dew Point 37 °F    
Average Humidity 83    
Maximum Humidity 100    
Minimum Humidity 71    
Precipitation  
Precipitation 0.08 in - - ()
Sea Level Pressure  
Sea Level Pressure 29.81 in    
Wind  
Wind Speed 13 mph (SSE)    
Max Wind Speed 21 mph    
Max Gust Speed 23 mph    
Visibility 10 miles    
Events      
Averages and records for this station are not official NWS values.
T = Trace of Precipitation, MM = Missing Value Source: NWS Daily Summary

Daily Weather History Graph

Daily Weather History Graph

Search for Another Location

Airport or City:

Trip Planner

Search our weather history database for the weather conditions in past years. The results will help you decide how hot, cold, wet, or windy it might be!

Date:

Astronomy

Feb. 19, 2013 Rise Set
Actual Time 6:51 AM PST 5:47 PM PST
Civil Twilight 6:24 AM PST 6:14 PM PST
Nautical Twilight 5:53 AM PST 6:45 PM PST
Astronomical Twilight 5:22 AM PST 7:16 PM PST
Moon 12:25 PM PST (2/19) 2:25 AM PST (2/19)
Length of Visible Light 11h 50m
Length of Day
10h 56m
Waxing Gibbous, 68% of the Moon is Illuminated
Feb 19
Waxing Gibbous
Feb 25
Full
Mar 4
Last Quarter
Mar 11
New
Mar 19
First Quarter

Hourly Weather History & Observations

Time (PST) Temp. Windchill Dew Point Humidity Pressure Visibility Wind Dir Wind Speed Gust Speed Precip Events Conditions
12:15 AM 46.4 °F 39.8 °F 37.4 °F 71% 29.91 in 10.0 mi SSE 16.1 mph - N/A   Overcast
12:35 AM 44.6 °F 37.8 °F 37.4 °F 76% 29.91 in 10.0 mi SSE 15.0 mph 18.4 mph N/A   Mostly Cloudy
12:55 AM 44.6 °F 38.4 °F 35.6 °F 71% 29.91 in 10.0 mi SSE 12.7 mph - N/A   Scattered Clouds
1:15 AM 44.6 °F 38.4 °F 35.6 °F 71% 29.90 in 10.0 mi SSE 12.7 mph - N/A   Scattered Clouds
1:35 AM 42.8 °F 36.2 °F 35.6 °F 76% 29.91 in 10.0 mi SSE 12.7 mph - N/A   Scattered Clouds
1:55 AM 44.6 °F 37.8 °F 35.6 °F 71% 29.90 in 10.0 mi SSE 15.0 mph - N/A   Overcast
2:15 AM 44.6 °F 38.1 °F 35.6 °F 71% 29.90 in 10.0 mi SSE 13.8 mph 18.4 mph N/A   Overcast
2:35 AM 44.6 °F 38.8 °F 35.6 °F 71% 29.89 in 10.0 mi SSE 11.5 mph - N/A   Overcast
2:55 AM 42.8 °F 36.6 °F 35.6 °F 76% 29.88 in 10.0 mi SSE 11.5 mph - N/A   Mostly Cloudy
3:15 AM 42.8 °F 35.8 °F 35.6 °F 76% 29.88 in 10.0 mi SSE 13.8 mph - N/A   Scattered Clouds
3:35 AM 42.8 °F 35.8 °F 35.6 °F 76% 29.88 in 10.0 mi SSE 13.8 mph - N/A   Overcast
3:55 AM 41.0 °F 34.7 °F 35.6 °F 81% 29.88 in 10.0 mi SE 10.4 mph - N/A   Mostly Cloudy
4:15 AM 41.0 °F 35.2 °F 35.6 °F 81% 29.88 in 10.0 mi SE 9.2 mph - N/A   Scattered Clouds
4:35 AM 41.0 °F 35.2 °F 35.6 °F 81% 29.88 in 10.0 mi SE 9.2 mph - N/A   Clear
4:55 AM 41.0 °F 33.9 °F 35.6 °F 81% 29.88 in 10.0 mi SE 12.7 mph - N/A   Clear
5:15 AM 41.0 °F 34.7 °F 35.6 °F 81% 29.88 in 10.0 mi SE 10.4 mph - N/A   Clear
5:35 AM 41.0 °F 33.9 °F 35.6 °F 81% 29.88 in 10.0 mi SE 12.7 mph - N/A   Clear
5:55 AM 41.0 °F 33.9 °F 35.6 °F 81% 29.87 in 10.0 mi SE 12.7 mph - N/A   Clear
6:15 AM 42.8 °F 36.6 °F 35.6 °F 76% 29.87 in 10.0 mi SE 11.5 mph - N/A   Mostly Cloudy
6:35 AM 42.8 °F 35.4 °F 35.6 °F 76% 29.86 in 10.0 mi SE 15.0 mph - N/A   Overcast
6:55 AM 42.8 °F 36.6 °F 35.6 °F 76% 29.86 in 10.0 mi SSE 11.5 mph - N/A   Overcast
7:15 AM 42.8 °F 35.1 °F 35.6 °F 76% 29.85 in 10.0 mi SE 16.1 mph 23.0 mph N/A   Overcast
7:35 AM 42.8 °F 35.4 °F 35.6 °F 76% 29.84 in 10.0 mi SSE 15.0 mph - N/A   Overcast
7:55 AM 44.6 °F 36.4 °F 35.6 °F 71% 29.84 in 10.0 mi SE 20.7 mph - N/A   Overcast
8:15 AM 42.8 °F 35.1 °F 37.4 °F 81% 29.84 in 10.0 mi SE 16.1 mph - N/A   Overcast
8:35 AM 42.8 °F 34.8 °F 37.4 °F 81% 29.83 in 10.0 mi SE 17.3 mph - N/A   Overcast
8:55 AM 42.8 °F 34.3 °F 39.2 °F 87% 29.82 in 10.0 mi SSE 19.6 mph 23.0 mph N/A   Overcast
9:15 AM 42.8 °F 34.5 °F 39.2 °F 87% 29.81 in 10.0 mi SSE 18.4 mph 23.0 mph N/A   Overcast
9:35 AM 44.6 °F 36.9 °F 39.2 °F 81% 29.80 in 10.0 mi SE 18.4 mph 23.0 mph N/A   Overcast
9:55 AM 42.8 °F 35.4 °F 41.0 °F 93% 29.79 in 7.0 mi SSE 15.0 mph - N/A   Overcast
10:15 AM 42.8 °F 35.4 °F 41.0 °F 93% 29.79 in 5.0 mi SSE 15.0 mph - 0.01 in   Overcast
10:35 AM 44.6 °F 38.4 °F 41.0 °F 87% 29.78 in 7.0 mi SSE 12.7 mph - 0.01 in   Overcast
10:55 AM 44.6 °F 38.4 °F 41.0 °F 87% 29.79 in 7.0 mi South 12.7 mph - N/A   Overcast
11:15 AM 44.6 °F 37.8 °F 41.0 °F 87% 29.79 in 5.0 mi SSW 15.0 mph 21.9 mph N/A   Overcast
11:35 AM 42.8 °F 35.4 °F 39.2 °F 87% 29.78 in 7.0 mi South 15.0 mph - 0.01 in   Overcast
11:55 AM 42.8 °F 35.1 °F 41.0 °F 93% 29.77 in 10.0 mi South 16.1 mph 20.7 mph N/A   Overcast
12:15 PM 42.8 °F 36.2 °F 39.2 °F 87% 29.76 in 10.0 mi South 12.7 mph - N/A   Overcast
12:35 PM 42.8 °F 35.4 °F 39.2 °F 87% 29.76 in 10.0 mi South 15.0 mph - 0.01 in   Overcast
12:55 PM 42.8 °F 35.8 °F 41.0 °F 93% 29.76 in 10.0 mi South 13.8 mph 20.7 mph N/A   Overcast
1:15 PM 44.6 °F 38.1 °F 42.8 °F 93% 29.75 in 10.0 mi South 13.8 mph 19.6 mph N/A   Overcast
1:35 PM 44.6 °F 37.8 °F 42.8 °F 93% 29.74 in 10.0 mi South 15.0 mph 19.6 mph N/A   Overcast
1:55 PM 44.6 °F 38.4 °F 41.0 °F 87% 29.73 in 10.0 mi SSE 12.7 mph - N/A   Overcast
2:15 PM 44.6 °F 37.8 °F 41.0 °F 87% 29.72 in 10.0 mi SSE 15.0 mph - N/A   Overcast
2:35 PM 44.6 °F 38.4 °F 41.0 °F 87% 29.73 in 10.0 mi SSE 12.7 mph - N/A   Overcast
2:55 PM 44.6 °F 40.2 °F 37.4 °F 76% 29.73 in 10.0 mi South 8.1 mph - N/A   Overcast
3:15 PM 44.6 °F 38.4 °F 37.4 °F 76% 29.73 in 10.0 mi SSE 12.7 mph - N/A   Overcast
3:35 PM 44.6 °F 38.4 °F 37.4 °F 76% 29.73 in 10.0 mi SE 12.7 mph - N/A   Overcast
4:35 PM 44.6 °F 38.8 °F 37.4 °F 76% 29.72 in 10.0 mi ESE 11.5 mph - N/A   Scattered Clouds
4:55 PM 44.6 °F 38.8 °F 37.4 °F 76% 29.73 in 10.0 mi ESE 11.5 mph - 0.01 in   Clear
5:15 PM 44.6 °F 39.7 °F 35.6 °F 71% 29.73 in 10.0 mi ESE 9.2 mph - 0.01 in   Scattered Clouds
5:55 PM 41.0 °F 36.4 °F 35.6 °F 81% 29.73 in 10.0 mi East 6.9 mph - N/A   Scattered Clouds
6:35 PM 39.2 °F 35.9 °F 35.6 °F 87% 29.75 in 10.0 mi East 4.6 mph - N/A   Mostly Cloudy
6:55 PM 41.0 °F 33.1 °F 35.6 °F 81% 29.77 in 10.0 mi NNW 15.0 mph 20.7 mph 0.01 in   Overcast
7:15 PM 39.2 °F 31.2 °F 33.8 °F 81% 29.77 in 10.0 mi North 13.8 mph 17.3 mph 0.01 in   Overcast
7:55 PM 37.4 °F 33.8 °F 35.6 °F 93% 29.76 in 10.0 mi North 4.6 mph - N/A   Overcast
8:15 PM 37.4 °F - 35.6 °F 93% 29.76 in 10.0 mi Calm Calm - N/A   Overcast
8:35 PM 37.4 °F 32.8 °F 35.6 °F 93% 29.77 in 10.0 mi West 5.8 mph - N/A   Mostly Cloudy
8:55 PM 35.6 °F 31.7 °F 33.8 °F 93% 29.77 in 10.0 mi NW 4.6 mph - N/A   Scattered Clouds
9:15 PM 35.6 °F 31.7 °F 33.8 °F 93% 29.78 in 10.0 mi NNW 4.6 mph - N/A   Clear
9:35 PM 33.8 °F 27.7 °F 32.0 °F 93% 29.78 in 10.0 mi NNW 6.9 mph - 0.01 in   Clear
9:55 PM 33.8 °F 27.7 °F 32.0 °F 93% 29.78 in 10.0 mi NW 6.9 mph - N/A   Clear
10:15 PM 33.8 °F 27.7 °F 32.0 °F 93% 29.79 in 10.0 mi NW 6.9 mph - N/A   Clear
10:35 PM 33.8 °F 28.6 °F 32.0 °F 93% 29.80 in 10.0 mi WNW 5.8 mph - N/A   Clear
10:55 PM 33.8 °F 28.6 °F 32.0 °F 93% 29.80 in 10.0 mi NNW 5.8 mph - N/A   Clear
11:15 PM 32.0 °F 26.4 °F 32.0 °F 100% 29.80 in 10.0 mi North 5.8 mph - N/A   Clear
11:35 PM 32.0 °F - 30.2 °F 93% 29.81 in 10.0 mi Calm Calm - N/A   Clear
11:55 PM 32.0 °F - 32.0 °F 100% 29.82 in 10.0 mi Calm Calm - N/A   Clear